Wind_Speed
73 74 75 76 76 76 77 77 78 79 79 79 79 79 80 80 80 80 81 81 81 81 82 82 82 82 82 82 82 82 82 82 82 82 82 82 82 83 84 84 85 85 85 85 85 86 86 85 84 83 83 82
73 74 75 77 77 78 78 79 80 80 81 82 82 82 83 83 83 83 83 84 84 84 84 85 85 85 85 85 85 85 85 85 85 85 85 85 85 85 86 86 87 87 88 88 88 88 88 88 88 87 87 86
75 75 76 77 78 79 79 80 81 82 83 84 84 85 85 86 86 87 87 87 87 87 88 88 88 88 88 88 88 88 88 88 88 88 88 87 88 88 88 88 88 89 89 90 90 91 91 91 90 90 90 89
77 78 78 79 79 80 81 81 82 83 84 85 86 87 87 88 88 89 90 90 90 90 91 91 91 91 91 91 91 91 91 91 91 91 90 90 90 90 91 91 91 91 92 92 92 93 93 93 93 93 92 92
80 81 81 81 82 83 83 83 84 84 85 86 86 87 88 89 90 91 91 92 92 92 93 93 93 93 94 94 94 94 94 94 93 93 93 93 93 93 93 94 94 94 95 95 95 95 95 95 96 95 95 95
84 84 84 85 85 86 86 86 87 87 87 88 88 89 89 90 91 92 93 93 94 94 95 95 95 96 96 96 96 96 96 96 96 96 96 96 96 96 96 96 97 97 97 97 97 97 97 97 98 98 98 97
87 87 88 88 89 89 89 90 90 90 90 91 91 91 91 92 92 93 94 94 95 96 97 97 98 98 98 98 99 99 99 99 99 99 99 99 100 100 100 100 100 100 100 100 100 100 100 100 100 100 100 100
89 90 91 92 92 93 93 93 94 94 95 95 95 95 95 95 96 96 96 97 97 98 98 99 99 100 100 101 101 102 102 102 102 102 103 103 103 103 103 103 103 104 104 104 103 103 103 103 103 103 103 104
90 91 92 93 94 94 95 96 97 97 98 98 99 99 99 100 100 100 100 100 101 101 101 102 102 102 102 103 103 104 104 105 105 105 106 106 106 106 106 106 106 107 107 107 107 107 106 106 106 107 107 107
91 92 93 94 95 96 96 97 98 99 100 100 101 102 102 103 103 104 104 104 105 105 105 105 106 106 106 107 107 107 107 107 108 108 108 108 108 109 109 109 109 110 110 110 110 110 110 110 110 110 110 110
92 93 94 95 96 97 97 98 99 100 101 102 103 103 104 105 106 106 107 107 108 108 108 109 109 110 110 110 111 111 112 112 112 112 112 112 112 112 112 112 112 113 113 113 113 113 114 114 114 114 114 114
92 93 94 95 96 97 97 98 99 100 101 102 103 104 105 106 107 108 109 110 110 111 111 112 112 113 113 113 114 114 115 116 116 116 117 117 116 116 116 116 116 116 116 116 117 117 117 117 117 117 117 118
93 94 95 96 96 97 98 98 99 100 101 102 103 104 105 106 107 108 109 110 111 112 113 113 114 115 115 116 116 117 118 118 119 119 120 120 120 121 121 121 121 121 121 121 121 121 121 121 121 121 121 121
95 95 96 97 98 99 99 100 101 102 102 103 104 105 106 107 108 109 110 111 112 112 113 114 115 116 117 117 118 119 119 120 121 121 122 122 123 123 124 124 124 125 125 125 125 125 125 125 125 125 125 125
96 97 98 99 100 101 102 103 103 104 105 106 107 108 109 110 111 112 113 113 114 115 116 117 117 118 119 119 120 121 122 122 123 123 124 124 125 125 126 126 127 127 127 128 128 128 128 128 128 128 128 128
98 99 100 101 102 103 104 105 106 107 108 109 110 111 113 114 115 115 116 117 118 118 119 120 121 121 122 122 123 124 124 125 125 126 126 127 127 128 128 129 129 129 130 130 130 131 131 131 131 131 131 131
100 101 102 103 104 105 106 107 108 109 110 111 113 114 115 116 117 118 119 120 121 122 122 123 124 125 125 126 127 127 128 128 129 129 130 130 130 131 131 132 132 132 133 133 133 133 134 134 134 134 135 135
102 103 104 105 106 107 108 109 110 111 113 114 115 116 117 119 120 121 122 123 124 124 125 126 127 128 129 129 130 131 131 132 133 133 133 134 134 134 135 135 135 136 136 136 136 136 137 137 137 137 137 138
105 106 107 108 109 110 111 112 114 115 116 117 118 120 121 122 123 124 125 126 127 128 129 129 130 131 132 133 133 134 135 135 136 137 137 138 138 139 139 139 139 140 140 140 140 140 140 140 140 140 140 140
108 109 110 111 112 113 114 115 117 118 120 121 122 123 124 125 126 128 129 130 131 132 133 133 134 135 136 137 137 138 139 139 140 140 141 141 142 142 142 143 143 143 144 144 144 144 145 145 144 144 144 144
110 111 112 113 114 115 117 118 119 121 122 123 124 125 127 128 129 131 132 133 134 135 136 137 137 138 139 140 141 142 143 143 144 145 145 145 146 146 146 146 146 147 147 147 148 148 148 148 148 148 149 149
112 113 114 115 116 118 119 120 121 123 124 125 126 127 129 130 131 133 134 135 136 137 138 139 139 140 141 142 143 144 145 146 147 148 148 148 149 149 150 150 150 150 151 151 151 151 151 152 152 152 152 152
113 114 116 117 118 119 120 121 122 122 123 124 125 126 127 128 129 130 132 133 134 135 136 137 138 139 140 141 143 144 145 146 148 149 150 150 151 152 152 152 153 153 153 154 154 154 155 155 155 155 155 155
111 112 113 113 113 114 115 115 116 117 117 118 119 120 120 121 122 124 125 126 127 128 129 130 132 133 135 136 138 139 141 142 144 145 147 148 149 151 152 152 153 154 155 155 156 156 157 158 158 158 158 158
103 104 104 105 105 106 107 108 109 110 111 112 113 114 115 116 117 119 120 122 123 124 125 126 127 129 130 132 133 134 135 137 138 139 141 143 144 145 147 148 149 151 152 153 154 156 157 158 159 159 160 160
97 98 99 100 101 102 103 105 106 107 108 109 110 111 112 113 115 117 118 119 121 122 123 124 125 127 128 130 131 131 132 133 134 136 137 138 139 140 142 143 144 145 147 148 149 151 152 154 156 157 158 159
93 94 95 96 98 99 100 101 102 103 104 105 106 107 108 109 111 113 114 116 117 119 120 121 123 124 126 127 128 129 130 131 132 134 135 136 137 138 139 139 140 141 143 144 145 146 147 149 150 152 154 154
88 89 90 91 92 93 94 95 95 97 98 99 100 101 102 104 106 107 109 111 113 115 116 118 120 121 123 124 126 127 128 129 130 131 132 133 134 135 136 137 137 138 139 141 143 143 144 145 146 148 149 150
82 83 83 84 86 87 88 88 89 91 92 93 94 95 96 98 100 102 104 106 108 109 111 114 116 118 120 121 123 124 126 126 127 128 130 131 131 132 133 134 134 135 135 137 139 141 141 142 143 144 146 147
77 77 78 79 80 82 83 84 86 87 88 88 88 90 91 92 95 97 98 100 102 103 106 109 111 114 115 117 118 120 122 123 124 125 126 127 128 129 130 131 131 132 132 133 134 137 138 139 140 141 142 143
74 75 75 75 77 79 80 82 83 84 84 84 85 86 88 89 90 92 93 95 96 98 100 102 105 108 110 112 113 115 117 119 120 121 122 124 125 125 126 127 128 128 129 130 131 132 134 136 137 137 138 139
Wind_Direction
248 248 249 249 249 249 249 249 248 248 248 247 247 247 248 248 248 248 248 248 248 248 248 248 248 248 248 248 248 248 248 247 247 246 245 245 246 246 246 245 245 245 245 245 245 245 245 245 245 246 246 246
248 248 249 249 250 250 250 250 250 250 250 249 249 249 249 249 249 249 249 249 249 249 250 250 250 250 250 250 250 250 250 249 248 248 247 246 246 246 246 246 246 246 246 245 245 245 245 245 246 246 246 247
250 250 249 250 250 250 251 251 251 251 251 251 251 251 251 251 250 250 251 251 251 251 251 251 251 252 251 251 251 251 251 250 250 249 248 247 246 246 246 246 246 246 247 247 246 246 246 246 246 246 246 247
252 252 251 251 251 251 252 252 252 252 252 252 252 252 252 252 252 252 252 252 252 252 252 252 252 253 253 253 253 252 252 252 251 251 250 249 248 247 246 246 246 246 247 247 248 248 247 247 247 247 246 247
254 254 254 254 253 253 253 253 253 253 253 253 253 253 253 253 253 253 253 253 253 253 253 253 253 253 253 253 253 253 253 253 252 252 251 251 250 249 248 247 246 246 247 247 247 248 248 248 248 247 247 247
255 255 255 255 255 255 255 255 255 255 255 255 254 254 254 254 254 254 254 254 254 254 254 254 254 254 254 254 254 254 253 253 253 253 252 252 251 251 250 249 248 248 247 247 247 247 248 248 248 248 248 248
257 257 257 257 257 257 257 257 257 257 257 257 257 256 256 256 256 255 255 255 255 255 255 255 255 255 255 255 254 254 254 254 254 253 253 253 253 252 252 251 250 250 249 249 248 248 248 248 248 248 248 248
258 259 259 259 259 259 259 259 259 259 259 259 259 259 258 258 258 257 257 257 256 256 256 256 256 256 256 255 255 255 255 255 254 254 254 254 253 253 253 252 252 251 251 250 250 249 249 249 248 248 248 248
259 259 260 260 260 260 260 260 260 260 260 260 260 260 260 260 260 259 259 259 258 258 258 257 257 257 256 256 256 255 255 255 255 255 254 254 254 254 253 253 253 252 252 252 251 251 250 250 250 249 249 249
261 261 261 261 261 261 261 261 261 261 261 261 261 261 261 261 260 260 260 260 260 259 259 259 259 258 258 257 257 256 256 256 255 255 255 254 254 254 253 253 253 253 252 252 252 251 251 250 250 250 250 250
262 262 262 262 262 262 262 262 262 261 261 261 261 261 261 261 261 261 261 260 260 260 260 259 259 259 259 258 258 258 257 257 256 256 255 255 254 254 254 253 253 253 253 252 252 252 251 251 250 250 250 251
263 263 263 263 263 263 263 263 263 263 263 262 262 262 262 262 262 262 261 261 261 261 260 260 259 259 259 259 258 258 258 257 257 257 256 256 255 255 254 254 253 253 253 253 252 252 252 251 251 251 250 250
265 265 265 264 264 264 264 264 264 264 263 263 263 263 263 263 263 262 262 262 262 261 261 261 260 260 260 259 259 258 258 258 258 257 257 256 256 255 255 254 254 254 253 253 253 252 252 252 252 251 251 251
265 265 265 265 265 265 265 265 265 265 265 264 264 264 264 263 263 263 263 262 262 262 261 261 261 260 260 260 259 259 259 258 258 258 257 257 257 256 256 255 255 254 254 253 253 253 253 252 252 252 252 252
265 265 265 266 266 266 266 265 265 265 265 265 265 265 264 264 264 263 263 263 262 262 262 261 261 261 260 260 260 259 259 258 258 258 258 257 257 257 256 256 256 255 255 254 254 254 253 253 252 252 252 252
266 266 266 265 265 265 265 265 265 265 265 265 265 265 265 264 264 264 264 263 263 263 262 262 262 261 261 261 260 260 259 259 259 258 258 258 257 257 257 256 256 256 255 255 255 254 254 253 253 253 252 252
266 266 266 266 266 266 266 265 265 265 265 265 265 265 265 264 264 264 264 264 264 263 263 263 263 263 262 262 261 261 261 260 260 259 259 258 258 257 257 257 256 256 256 255 255 255 254 254 254 253 253 252
266 266 266 266 266 266 266 266 266 266 266 265 265 265 265 265 265 265 265 265 264 264 264 264 263 263 263 263 262 262 262 261 261 260 260 259 259 258 258 257 257 256 256 256 255 255 255 254 254 254 253 253
266 266 267 267 267 267 267 267 267 267 266 266 266 266 266 266 266 266 265 265 265 265 265 264 264 264 263 263 263 263 262 262 261 261 260 260 260 259 259 258 258 257 257 256 256 255 255 255 254 254 254 253
268 268 268 268 268 268 268 268 268 268 267 267 267 267 267 267 267 266 266 266 266 266 265 265 265 265 264 264 264 263 263 263 262 262 261 261 260 260 260 259 259 258 258 257 257 256 256 255 255 254 254 253
269 269 270 270 269 269 269 269 269 269 269 269 269 268 268 268 268 268 267 267 267 266 266 266 266 266 265 265 265 265 264 264 263 263 263 262 262 261 261 260 260 259 259 258 258 257 257 256 256 255 255 254
271 271 271 271 271 270 270 270 270 270 270 270 270 270 270 269 269 269 269 268 268 268 267 267 267 266 266 266 265 265 265 265 264 264 264 263 263 262 262 262 261 261 260 260 259 259 258 258 257 256 256 255
272 272 272 272 272 272 272 272 272 272 272 271 271 271 271 271 271 271 270 270 270 269 269 268 268 268 267 267 266 266 265 265 265 264 264 264 263 263 263 262 262 262 261 261 260 260 260 259 258 258 257 256
273 273 273 273 273 273 273 273 273 273 273 273 273 273 273 273 272 272 272 271 271 271 270 270 269 269 268 268 267 267 266 266 265 265 265 264 264 263 263 263 262 262 262 261 261 260 260 260 259 259 258 258
274 274 274 274 274 275 275 275 275 275 275 275 275 275 275 274 274 274 274 273 273 272 272 271 271 270 270 269 268 268 267 267 266 266 266 265 265 264 264 263 263 262 262 261 261 261 260 260 260 259 259 259
276 276 276 276 276 277 277 277 277 277 277 276 276 276 276 276 276 275 275 275 274 274 274 273 272 272 271 271 270 270 269 269 268 267 267 266 266 265 265 264 264 263 263 262 261 261 261 260 260 259 259 259
278 278 278 278 278 278 278 278 278 277 277 277 277 277 277 277 276 276 276 276 275 275 275 274 274 273 273 272 272 271 271 270 269 269 268 267 267 266 266 265 265 264 264 263 263 262 261 261 261 260 259 259
279 279 279 279 279 279 279 279 279 279 278 278 279 279 278 278 278 277 277 277 276 276 276 276 275 274 274 274 273 273 272 271 271 270 270 269 268 268 267 266 266 265 265 265 264 263 262 262 261 261 260 260
280 280 280 281 281 280 280 280 280 279 279 280 280 279 279 279 278 278 278 278 278 277 277 276 276 275 275 275 274 274 273 273 272 272 271 271 270 269 269 268 267 266 265 265 265 264 263 262 262 261 261 260
280 280 280 280 280 280 280 279 279 279 279 279 279 279 279 279 279 279 279 279 278 278 278 277 277 276 276 275 274 274 274 273 273 272 272 272 271 271 270 269 269 268 267 266 266 265 265 264 263 262 261 261
280 280 279 279 280 281 281 281 280 280 280 281 281 281 281 281 281 281 281 281 280 280 279 279 278 277 277 276 275 274 274 273 273 273 272 272 271 271 271 270 270 269 268 267 266 266 266 265 264 263 262 262
Height
10725 10725 10726 10726 10726 10726 10727 10728 10728 10729 10730 10730 10731 10731 10732 10732 10733 10733 10734 10735 10735 10735 10736 10736 10737 10738 10739 10739 10740 10741 10742 10743 10744 10746 10747 10748 10749 10750 10751 10751 10752 10753 10754 10755 10756 10758 10759 10760 10762 10763 10764 10765
10718 10719 10719 10719 10719 10719 10720 10720 10721 10721 10722 10722 10723 10724 10724 10724 10725 10726 10726 10727 10727 10728 10728 10728 10729 10730 10731 10731 10732 10733 10733 10734 10736 10737 10739 10740 10741 10742 10743 10743 10744 10745 10745 10746 10747 10749 10750 10752 10753 10755 10756 10758
10711 10712 10712 10712 10712 10712 10713 10713 10713 10713 10714 10714 10714 10715 10716 10716 10717 10717 10718 10719 10719 10720 10720 10720 10721 10721 10722 10723 10724 10724 10725 10726 10727 10728 10729 10731 10733 10734 10734 10735 10736 10736 10737 10738 10739 10740 10741 10743 10744 10746 10748 10749
10704 10705 10705 10705 10705 10705 10705 10705 10706 10706 10706 10706 10707 10707 10708 10708 10709 10709 10710 10710 10711 10712 10712 10713 10713 10714 10714 10715 10716 10716 10717 10717 10718 10719 10720 10721 10723 10724 10725 10726 10727 10728 10728 10729 10730 10731 10732 10734 10735 10737 10739 10740
10697 10697 10697 10698 10698 10698 10698 10698 10698 10699 10699 10699 10699 10700 10700 10700 10701 10701 10702 10702 10702 10703 10704 10704 10705 10705 10706 10706 10707 10708 10708 10708 10709 10710 10710 10711 10713 10714 10715 10717 10718 10718 10719 10720 10721 10722 10723 10724 10726 10727 10729 10731
10690 10690 10690 10690 10690 10690 10690 10690 10691 10691 10691 10691 10692 10692 10692 10692 10693 10693 10693 10694 10694 10694 10695 10696 10696 10696 10697 10697 10698 10698 10699 10699 10700 10700 10701 10702 10703 10704 10705 10707 10708 10709 10710 10711 10712 10713 10714 10715 10716 10717 10719 10721
10682 10682 10682 10682 10682 10682 10683 10683 10683 10683 10683 10683 10683 10684 10684 10684 10684 10684 10684 10685 10685 10685 10686 10686 10687 10687 10687 10688 10688 10689 10689 10689 10690 10690 10690 10691 10692 10693 10695 10696 10697 10699 10700 10701 10702 10703 10704 10705 10706 10707 10709 10710
10674 10674 10674 10674 10674 10674 10674 10674 10674 10674 10673 10674 10674 10674 10674 10674 10674 10674 10674 10674 10675 10675 10675 10676 10676 10676 10677 10677 10677 10678 10678 10678 10679 10679 10680 10680 10681 10682 10683 10685 10686 10687 10689 10690 10691 10693 10694 10695 10696 10698 10699 10700
10665 10665 10665 10665 10665 10664 10664 10664 10664 10663 10663 10663 10663 10663 10663 10663 10663 10663 10663 10663 10663 10664 10664 10664 10665 10665 10665 10666 10666 10666 10667 10667 10667 10668 10668 10669 10670 10671 10671 10673 10674 10675 10677 10678 10679 10681 10682 10684 10685 10686 10688 10689
10656 10656 10656 10655 10655 10655 10654 10654 10654 10653 10652 10652 10652 10651 10651 10651 10651 10651 10651 10651 10651 10652 10652 10652 10652 10653 10653 10653 10654 10654 10654 10655 10655 10656 10656 10657 10658 10659 10659 10660 10661 10663 10664 10665 10666 10668 10670 10671 10673 10674 10676 10677
10647 10646 10646 10645 10645 10644 10644 10643 10643 10642 10642 10641 10641 10640 10640 10639 10639 10639 10639 10639 10639 10639 10639 10639 10640 10640 10640 10640 10641 10641 10641 10642 10643 10643 10643 10644 10645 10646 10647 10648 10648 10650 10651 10652 10653 10655 10656 10658 10660 10661 10662 10664
10637 10636 10635 10635 10634 10633 10633 10632 10632 10632 10631 10630 10630 10629 10628 10628 10627 10627 10626 10626 10626 10626 10626 10626 10627 10627 10627 10627 10627 10627 10628 10628 10629 10629 10629 10630 10631 10632 10633 10634 10635 10636 10638 10639 10640 10641 10643 10644 10646 10647 10649 10650
10626 10625 10625 10624 10623 10623 10622 10622 10621 10620 10620 10619 10618 10617 10617 10616 10615 10614 10614 10613 10613 10613 10613 10613 10613 10613 10613 10613 10613 10614 10614 10614 10614 10615 10615 10616 10617 10618 10619 10620 10620 10621 10623 10624 10625 10627 10628 10630 10631 10633 10635 10636
10616 10615 10614 10613 10612 10612 10611 10610 10609 10608 10607 10606 10605 10605 10604 10603 10602 10601 10600 10600 10599 10599 10599 10598 10598 10598 10598 10598 10598 10599 10599 10599 10599 10600 10600 10601 10602 10603 10604 10605 10605 10606 10608 10609 10610 10612 10613 10615 10616 10618 10619 10621
10605 10604 10603 10602 10601 10600 10599 10598 10597 10596 10595 10593 10592 10591 10590 10589 10588 10587 10586 10585 10585 10584 10584 10583 10583 10583 10583 10583 10582 10583 10583 10583 10584 10584 10585 10585 10586 10587 10588 10589 10590 10590 10591 10593 10594 10595 10597 10599 10601 10602 10604 10605
10594 10593 10592 10591 10589 10588 10587 10586 10585 10583 10582 10580 10579 10578 10576 10575 10574 10573 10572 10571 10570 10570 10569 10568 10568 10568 10568 10568 10567 10567 10567 10567 10568 10568 10568 10569 10569 10570 10571 10572 10573 10574 10575 10576 10578 10579 10580 10582 10584 10586 10587 10589
10583 10581 10580 10578 10577 10576 10574 10573 10572 10570 10569 10567 10565 10564 10563 10561 10560 10559 10558 10557 10556 10556 10555 10554 10553 10553 10552 10552 10552 10551 10551 10551 10551 10552 10552 10552 10552 10553 10554 10555 10556 10557 10558 10559 10561 10562 10563 10565 10567 10568 10570 10572
10570 10569 10567 10566 10564 10563 10562 10560 10559 10557 10555 10553 10552 10550 10548 10547 10546 10545 10544 10542 10541 10541 10540 10539 10538 10537 10537 10536 10535 10535 10534 10534 10534 10534 10534 10534 10535 10535 10536 10537 10537 10539 10540 10541 10543 10544 10546 10547 10549 10551 10553 10554
10558 10556 10555 10553 10552 10550 10549 10547 10545 10543 10541 10539 10537 10536 10534 10533 10532 10530 10529 10527 10526 10525 10524 10523 10522 10521 10520 10519 10518 10517 10516 10516 10516 10516 10516 10516 10516 10517 10518 10519 10519 10520 10521 10522 10523 10525 10527 10528 10530 10532 10534 10536
10545 10543 10542 10541 10539 10537 10535 10533 10530 10528 10526 10524 10523 10521 10519 10518 10516 10514 10513 10512 10510 10509 10507 10506 10505 10504 10502 10501 10500 10499 10498 10497 10497 10497 10497 10498 10498 10498 10499 10500 10500 10501 10502 10503 10503 10505 10507 10508 10510 10513 10514 10516
10532 10531 10530 10527 10524 10522 10520 10517 10515 10513 10511 10509 10508 10506 10504 10501 10499 10498 10496 10495 10493 10492 10490 10489 10488 10486 10485 10483 10482 10480 10479 10478 10477 10477 10478 10478 10478 10478 10479 10480 10481 10481 10482 10483 10483 10485 10486 10487 10490 10492 10494 10496
10518 10517 10515 10511 10509 10507 10504 10502 10500 10498 10496 10494 10492 10490 10487 10485 10482 10480 10478 10476 10475 10473 10472 10471 10469 10468 10466 10464 10463 10461 10460 10459 10457 10457 10457 10457 10457 10458 10458 10459 10460 10460 10461 10462 10463 10463 10465 10466 10468 10471 10473 10474
10504 10502 10499 10496 10494 10492 10489 10487 10485 10483 10480 10478 10475 10473 10470 10468 10465 10463 10460 10457 10456 10454 10452 10451 10449 10448 10446 10444 10442 10441 10439 10438 10437 10435 10435 10435 10435 10435 10436 10436 10438 10438 10438 10440 10440 10441 10442 10442 10444 10448 10450 10452
10490 10487 10485 10483 10481 10477 10474 10472 10469 10467 10465 10462 10459 10456 10454 10451 10448 10445 10441 10439 10437 10435 10433 10431 10429 10427 10424 10422 10421 10420 10418 10417 10416 10414 10413 10413 10412 10413 10413 10414 10416 10415 10414 10416 10417 10418 10419 10418 10420 10423 10426 10428
10476 10474 10472 10470 10466 10463 10460 10457 10455 10452 10449 10446 10444 10440 10438 10436 10432 10427 10424 10421 10419 10416 10414 10412 10409 10406 10404 10402 10400 10399 10398 10396 10395 10393 10392 10391 10390 10390 10390 10390 10392 10392 10391 10392 10394 10394 10395 10394 10395 10399 10401 10403
10464 10462 10460 10456 10453 10449 10447 10444 10440 10438 10435 10431 10428 10426 10424 10420 10415 10411 10408 10404 10401 10399 10396 10393 10390 10387 10384 10382 10380 10379 10378 10376 10374 10373 10371 10369 10369 10369 10368 10368 10369 10369 10367 10368 10370 10371 10371 10371 10371 10373 10377 10379
10452 10450 10447 10443 10440 10437 10434 10431 10427 10425 10421 10416 10414 10413 10410 10405 10400 10396 10392 10389 10385 10382 10379 10375 10372 10368 10365 10362 10361 10359 10358 10355 10353 10351 10350 10348 10347 10347 10346 10346 10347 10348 10344 10343 10346 10348 10348 10348 10348 10348 10351 10356
10441 10439 10435 10431 10428 10425 10422 10419 10415 10411 10407 10404 10402 10400 10395 10391 10386 10381 10377 10374 10370 10366 10363 10358 10354 10350 10347 10344 10341 10339 10337 10335 10333 10330 10328 10327 10326 10325 10324 10324 10325 10327 10326 10321 10320 10323 10325 10325 10326 10326 10326 10331
10431 10429 10425 10420 10417 10413 10410 10407 10403 10398 10395 10394 10391 10386 10382 10378 10372 10367 10364 10360 10356 10352 10347 10342 10337 10333 10330 10327 10324 10320 10317 10315 10314 10311 10308 10306 10304 10303 10302 10302 10302 10304 10305 10302 10297 10297 10300 10301 10302 10304 10305 10307
10421 10419 10416 10412 10407 10403 10399 10395 10391 10387 10385 10384 10380 10374 10370 10365 10359 10354 10351 10347 10342 10338 10332 10327 10322 10317 10314 10311 10307 10303 10299 10297 10295 10293 10289 10286 10284 10283 10281 10280 10280 10279 10280 10281 10278 10275 10274 10276 10278 10281 10282 10283
10412 10409 10406 10403 10398 10392 10387 10383 10379 10376 10374 10372 10368 10362 10356 10352 10347 10341 10337 10333 10328 10323 10318 10312 10306 10301 10297 10293 10290 10286 10282 10279 10277 10274 10272 10268 10266 10265 10263 10260 10259 10258 10256 10257 10258 10256 10254 10252 10253 10256 10258 10259